Regional Weather Roundup
Issued by NWS

Home | Current Version | Previous Version | Text Only | Print | Product List | Glossary Off
Versions: 1 2 3 4 5 6 7 8 9 10 11 12 13 14 15 16 17 18 19 20 21 22 23 24 25 26 27 28 29 30 31 32 33 34 35 36 37 38 39 40 41 42 43 44 45 46 47 48 49 50

539
ASUS45 KCYS 230810
RWRWY

WYOMING REGIONAL WEATHER ROUNDUP
NATIONAL WEATHER SERVICE CHEYENNE WY
200 AM MDT FRI JUN 23 2017

NOTE:  "FAIR" INDICATES FEW OR NO CLOUDS BELOW 12,000 FEET
WITH NO SIGNIFICANT WEATHER AND/OR OBSTRUCTIONS TO VISIBILITY.

WYZ001-230900-
YELLOWSTONE NATIONAL PARK

CITY           SKY/WX    TMP DP  RH WIND       PRES   REMARKS
LK YELLOWSTONE   N/A     35  27  72 NW3       30.36F
W YELLOWSTONE  NOT AVBL

$$
WYZ002>013-054>058-071-098>099-230900-
NORTHERN WYOMING

CITY           SKY/WX    TMP DP  RH WIND       PRES   REMARKS
JACKSON        FAIR      48  28  46 N12       30.25S
CODY           FAIR      47  36  65 NW5       30.33S
GREYBULL       FAIR      56  30  37 N15       30.25S
WORLAND        FAIR      54  37  52 NW10      30.28R
SHERIDAN       FAIR      46  38  73 NW8       30.28S
BUFFALO        FAIR      48  36  63 N8G21     30.29S
GILLETTE       CLOUDY    51  37  58 N12       30.25F
NEWCASTLE      FAIR      54  30  40 NW18G24   30.21S

$$
WYZ014>020-022>026-101>103-230900-
CENTRAL WYOMING

CITY           SKY/WX    TMP DP  RH WIND       PRES   REMARKS
BIG PINEY      FAIR      40  31  70 N3        30.26S
PINEDALE       FAIR      41  34  75 N6        30.26S
DUBOIS         CLOUDY    46  27  46 E9        30.31R
LANDER         FAIR      50  29  44 N6        30.30R
RIVERTON       FAIR      50  31  48 NE9       30.29R
CASPER         CLOUDY    53  29  39 N16       30.29R
DOUGLAS        LGT RAIN  51  43  74 CALM      30.27R

$$
WYZ021-027>030-104>119-230900-
SOUTHERN WYOMING

CITY           SKY/WX    TMP DP  RH WIND       PRES   REMARKS
EVANSTON       FAIR      53  34  48 CALM      30.26F
KEMMERER         N/A     45  34  65 N9        30.28S
FORT BRIDGER   FAIR      52  33  48 W7        30.29S
ROCK SPRINGS   FAIR      51  29  42 NE17      30.27R
DIXON          FAIR      57  35  42 NE20G30   30.20S
RAWLINS        FAIR      53  30  41 NE13      30.27R
SARATOGA       FAIR      54  36  50 NW7       30.23R
LARAMIE        LGT RAIN  54  42  64 NE18      30.23R
CHEYENNE       CLOUDY    56  52  86 NE12      30.20R
TORRINGTON     CLOUDY    61  35  37 N16       30.15R
PINE BLUFFS    CLOUDY    55  55 100 N10       30.18R

$$




USA.gov is the U.S. government's official web portal to all federal, state and local government web resources and services.